Location: Unspecified
(51.0950°N, 12.9690°E)
Time: 21:16:59
(UTC+00:00)

BEESAT - Visible Passes

Search period start: 24 April 2024 00:00
Search period end: 04 May 2024 00:00
Orbit: 693 x 702 km, 98.5° (Epoch: 24 April)

Date Brightness Start Highest point End Pass type
(mag) Time Alt. Az. Time Alt. Az. Time Alt. Az.
24 Apr ? 19:49:31 10° ENE 19:51:32 13° E 19:52:04 12° E visible
24 Apr ? 21:25:09 10° NNE 21:29:54 85° ESE 21:30:51 58° S visible
24 Apr ? 23:03:55 10° NNW 23:06:56 17° NW 23:09:38 11° W visible
25 Apr ? 20:29:12 10° NE 20:33:17 28° E 20:33:54 27° ESE visible
25 Apr ? 22:06:35 10° N 22:11:04 44° WNW 22:12:41 32° WSW visible
26 Apr ? 21:10:03 10° NNE 21:14:45 63° ESE 21:15:44 50° SSE visible
26 Apr ? 22:48:24 10° N 22:51:58 22° WNW 22:54:31 14° W visible
27 Apr ? 20:14:25 10° NE 20:17:58 21° E 20:18:46 20° ESE visible
27 Apr ? 21:51:19 10° N 21:55:58 59° WNW 21:57:33 38° SW visible
27 Apr ? 23:31:17 10° NNW 23:32:39 11° NW 23:34:01 10° WNW visible
28 Apr ? 20:54:58 10° NNE 20:59:32 46° E 21:00:35 39° SE visible
28 Apr ? 22:32:57 10° N 22:36:58 28° WNW 22:39:22 18° WSW visible
29 Apr ? 19:59:49 10° NE 20:02:37 15° E 20:03:37 15° ESE visible
29 Apr ? 21:36:05 10° NNE 21:40:50 79° WNW 21:42:24 43° SSW visible
29 Apr ? 23:15:13 10° NNW 23:17:43 14° NW 23:20:13 10° W visible
30 Apr ? 20:39:57 10° NNE 20:44:16 34° E 20:45:25 30° SE visible
30 Apr ? 22:17:35 10° N 22:21:54 36° WNW 22:24:12 23° WSW visible
01 May ? 19:45:47 10° ENE 19:47:12 11° E 19:48:25 10° E visible
01 May ? 21:20:53 10° NNE 21:25:38 77° ESE 21:27:12 42° S visible
01 May ? 22:59:31 10° NNW 23:02:44 18° WNW 23:05:56 10° W visible
02 May ? 20:25:01 10° NE 20:28:55 25° E 20:30:12 22° ESE visible
02 May ? 22:02:13 10° N 22:06:46 48° WNW 22:08:59 27° SW visible
03 May ? 21:05:43 10° NNE 21:10:23 56° ESE 21:11:59 37° SSE visible
03 May ? 22:43:56 10° N 22:47:40 24° WNW 22:50:46 13° WSW visible
